Location: Observatory
(52.1446°N, 0.4624°W)
Time: 16:46:47
(UTC+01:00)

ISS - Pass Details

Date: 25 May 2020
Orbit: 417 x 420 km, 51.6° (Epoch: 26 May)

Event Time Altitude Azimuth Distance (km) Brightness Sun altitude
Rises 22:53:53 0° 281° (W) 2,368 0.7 -11.8°
Reaches altitude 10° 22:56:00 10° 276° (W) 1,503 -0.4 -11.9°
Maximum altitude 22:59:17 51° 200° (SSW) 537 -3.5 -12.2°
Enters shadow 23:01:21 20° 131° (SE) 1,029 -2.3 -12.3°
